Content
SEND FEEDBACK

Daily
Averages
Monthly
Summary
Greece

IOANNINA, GREECE


Home > Europe > Greece
Elevation: 1588 feet     Latitude: 39 40N     Longitude: 020 51E

WEATHER
 
SELECT A DAY
Number of Records: 283,299;   Date Range: 7/1/96 - 7/28/14
 
SHARE

PRINT THIS DATA

[ ← Previous Day ]
WEATHER ALMANAC - DECEMBER 8, 2013
[ Next Day → ]
[ °C ]   °F
Weather ElementAverageHighLow
Temperature34 °F50 °F (1:50 pm)23 °F (6:50 am)
Dewpoint23.8 °F37.4 °F (11:50 am)19.4 °F (5:50 am)
Humidity69.3 %93 % (11:50 pm)30 % (1:50 pm)
Barometer30.33 in30.42 in (10:20 pm)30.24 in (12:50 am)
Wind Speed1.7 mph6.9 mph (2:20 pm)
Weather ElementAverage
Wind DirectionNNE (17.6 °)

Weather ElementTotal
Precipitation---
Heating Degree Days28.5 (Base 65)
Averaged from 42 records on December 8, 2013
WEATHER CONDITIONS BREAKOUT
WIND DIRECTION BREAKOUT
WEATHER BY HOUR - DECEMBER 8, 2013
[ °C ]   °F
Local TimeTemperatureDewpointHumidityBarometerVisibilityWind DirectionWind SpeedGust SpeedPrecipitationEventsConditions
12:50 AM30.2 °F24.8 °F80 %30.24 inCalm
1:20 AM30.2 °F24.8 °F80 %30.24 inVariable2.3 mph
1:50 AM28.4 °F24.8 °F86 %30.27 inVariable1.2 mph
2:20 AM28.4 °F24.8 °F86 %30.27 inVariable1.2 mph
2:50 AM30.2 °F23.0 °F75 %30.27 inVariable2.3 mph
3:20 AM26.6 °F23.0 °F86 %30.27 inVariable1.2 mph
3:50 AM28.4 °F23.0 °F80 %30.27 inVariable2.3 mph
4:20 AM26.6 °F21.2 °F80 %30.27 inVariable2.3 mph
4:50 AM26.6 °F21.2 °F80 %30.27 inVariable1.2 mph
5:20 AM24.8 °F21.2 °F86 %30.27 inVariable2.3 mph
5:50 AM24.8 °F19.4 °F80 %30.30 inVariable2.3 mph
6:20 AM28.4 °F21.2 °F74 %30.30 inVariable2.3 mph
6:50 AM23.0 °F19.4 °F86 %30.30 inVariable1.2 mph
7:20 AM24.8 °F19.4 °F80 %30.33 inVariable1.2 mph
7:50 AM26.6 °F19.4 °F74 %30.33 inVariable1.2 mph
8:20 AM26.6 °F21.2 °F80 %30.33 inVariable1.2 mph
8:50 AM28.4 °F21.2 °F74 %30.33 inCalm
9:20 AM28.4 °F23.0 °F80 %30.36 inVariable2.3 mph
9:50 AM33.8 °F21.2 °F60 %30.36 inVariable2.3 mph
11:50 AM41.0 °F37.4 °F87 %30.39 inCalmClear
12:20 PM42.8 °F26.6 °F53 %30.39 inCalmClear
12:50 PM46.4 °F21.2 °F37 %30.33 inNW (320°)2.3 mphClear
1:20 PM48.2 °F21.2 °F34 %30.33 inNE (40°)2.3 mphClear
1:50 PM50.0 °F19.4 °F30 %30.33 inSSE (160°)3.5 mphClear
2:20 PM46.4 °F24.8 °F43 %30.30 inESE (110°)6.9 mph
2:50 PM48.2 °F24.8 °F40 %30.30 inESE (110°)4.6 mph
3:20 PM50.0 °F24.8 °F37 %30.30 inVariable2.3 mph
3:50 PM48.2 °F26.6 °F43 %30.30 inVariable3.5 mph
4:20 PM46.4 °F26.6 °F46 %30.30 inVariable3.5 mph
4:50 PM44.6 °F26.6 °F49 %30.33 inVariable1.2 mph
5:50 PM41.0 °F26.6 °F57 %30.33 inCalmClear
6:50 PM39.2 °F24.8 °F56 %30.33 inCalmClear
7:20 PM39.2 °F24.8 °F56 %30.33 inCalmClear
7:50 PM35.6 °F26.6 °F70 %30.36 inCalmClear
8:20 PM32.0 °F26.6 °F80 %30.39 inCalmClear
8:50 PM32.0 °F24.8 °F75 %30.39 inCalmClear
9:20 PM30.2 °F24.8 °F80 %30.39 inVariable1.2 mph
9:50 PM30.2 °F24.8 °F80 %30.39 inVariable1.2 mph
10:20 PM28.4 °F24.8 °F86 %30.42 inVariable2.3 mph
10:50 PM28.4 °F24.8 °F86 %30.42 inVariable1.2 mph
11:20 PM28.4 °F24.8 °F86 %30.42 inVariable2.3 mph
11:50 PM26.6 °F24.8 °F93 %30.42 inVariable3.5 mph
Hourly data recorded from LGIO, located miles away from Ioannina, Greece







STORIES FROM OUR PARTNERS